Location: Borovka
(49.7741°N, 14.5280°E)
Time: 14:22:43
(UTC+00:00)

BREEZE-M DEB (TANK) - Visible Passes

Search period start: 14 February 2026 00:00
Search period end: 24 February 2026 00:00
Orbit: 280 x 13289 km, 49.4° (Epoch: 13 February)

Date Brightness Start Highest point End Pass type
(mag) Time Alt. Az. Time Alt. Az. Time Alt. Az.
14 Feb 7.6 01:38:42 10° SSE 01:46:59 13° SE 01:52:06 10° ESE visible
15 Feb 6.9 02:39:54 10° S 02:54:13 23° SSE 03:00:01 10° E visible
16 Feb 5.9 03:46:24 10° SSW 04:00:47 34° SSE 04:05:31 10° E visible
17 Feb 4.7 04:54:56 10° SW 05:06:37 50° SSE 05:10:17 10° E visible
18 Feb 7.3 01:34:13 10° S 01:48:26 19° SE 01:54:59 10° ESE visible
19 Feb 6.5 02:38:23 10° SSW 02:55:15 29° SSE 03:01:03 10° E visible
20 Feb 5.4 03:46:09 10° SW 04:01:18 42° SSE 04:05:51 10° E visible
21 Feb 7.6 00:35:14 13° SSE 00:41:42 14° SE 00:48:12 10° ESE visible
21 Feb 4.3 04:55:09 10° WSW 05:06:39 60° SSE 05:10:10 10° E visible
22 Feb 7.0 01:40:29 19° S 01:48:41 24° SSE 01:55:37 10° E visible
23 Feb 6.1 02:44:36 19° SSW 02:55:02 36° SSE 03:00:41 10° E visible
